Weather History for KBKW - September, 2012

Change the Weather History Date:

Tuesday, September 4, 2012

  Actual Average Record
Temperature  
Mean Temperature 74 °F 67 °F  
Max Temperature 81 °F 77 °F 90 °F (1953)
Min Temperature 67 °F 57 °F 31 °F (1916)
Degree Days  
Heating Degree Days 0 1  
Month to date heating degree days 0 4  
Since 1 July heating degree days 3 25  
Cooling Degree Days 9 3  
Month to date cooling degree days 42 15  
Year to date cooling degree days 725 508  
Growing Degree Days 24 (Base 50)    
Moisture  
Dew Point 66 °F    
Average Humidity 80    
Maximum Humidity 97    
Minimum Humidity 62    
Precipitation  
Precipitation 0.46 in 0.10 in 3.25 in (2003)
Month to date precipitation 0.91 0.40  
Year to date precipitation 31.62 30.06  
Snow  
Snow 0.00 in - - ()
Month to date snowfall 0.0  
Since 1 September snowfall 0.0  
Snow Depth 0.00 in    
Sea Level Pressure  
Sea Level Pressure 29.92 in    
Wind  
Wind Speed 7 mph (South)    
Max Wind Speed 14 mph    
Max Gust Speed 18 mph    
Visibility 10 miles    
Events Rain    
T = Trace of Precipitation, MM = Missing Value Source: NWS Daily Summary

Daily Weather History Graph

Daily Weather History Graph

Search for Another Location

Airport or City:

Trip Planner

Search our weather history database for the weather conditions in past years. The results will help you decide how hot, cold, wet, or windy it might be!

Date:

Astronomy

Sep. 04, 2012 Rise Set
Actual Time 6:57 AM EDT 7:48 PM EDT
Civil Twilight 6:30 AM EDT 8:15 PM EDT
Nautical Twilight 5:59 AM EDT 8:46 PM EDT
Astronomical Twilight 5:26 AM EDT 9:19 PM EDT
Moon 9:46 PM EDT (9/4) 10:57 AM EDT (9/4)
Length of Visible Light 13h 44m
Length of Day
12h 51m
Waning Gibbous, 84% of the Moon is Illuminated
Sep 4
Waning Gibbous
Sep 8
Last Quarter
Sep 15
New
Sep 22
First Quarter
Sep 29
Full

Hourly Weather History & Observations

Time (EDT) Temp. Heat Index Dew Point Humidity Pressure Visibility Wind Dir Wind Speed Gust Speed Precip Events Conditions
12:51 AM 68.0 °F - 66.0 °F 93% 29.94 in 10.0 mi SE 5.8 mph - 0.00 in   Clear
1:51 AM 68.0 °F - 66.0 °F 93% 29.93 in 10.0 mi SE 5.8 mph - N/A   Partly Cloudy
2:51 AM 68.0 °F - 64.9 °F 90% 29.92 in 10.0 mi SE 8.1 mph - N/A   Mostly Cloudy
3:36 AM 68.0 °F - 64.4 °F 88% 30.03 in 10.0 mi SSE 5.8 mph - N/A   Mostly Cloudy
3:51 AM 68.0 °F - 64.9 °F 90% 29.91 in 10.0 mi SSE 6.9 mph - N/A   Scattered Clouds
4:51 AM 68.0 °F - 64.9 °F 90% 29.91 in 10.0 mi SE 6.9 mph - N/A   Clear
5:51 AM 68.0 °F - 64.9 °F 90% 29.92 in 10.0 mi SSE 5.8 mph - N/A   Mostly Cloudy
6:51 AM 68.0 °F - 64.0 °F 87% 29.94 in 10.0 mi SSE 6.9 mph - N/A   Overcast
7:51 AM 68.0 °F - 64.9 °F 90% 29.96 in 10.0 mi SSE 9.2 mph - N/A   Overcast
8:51 AM 69.1 °F - 64.9 °F 87% 29.95 in 10.0 mi South 5.8 mph - N/A   Overcast
9:51 AM 72.0 °F - 64.9 °F 78% 29.95 in 10.0 mi SSE 10.4 mph 18.4 mph N/A   Scattered Clouds
10:51 AM 75.9 °F - 66.0 °F 71% 29.93 in 10.0 mi South 9.2 mph - N/A   Mostly Cloudy
11:24 AM 78.8 °F - 66.2 °F 65% 30.04 in 10.0 mi South 12.7 mph - N/A   Mostly Cloudy
11:51 AM 77.0 °F - 64.9 °F 66% 29.93 in 10.0 mi SSW 9.2 mph - N/A   Mostly Cloudy
12:15 PM 78.8 °F - 64.4 °F 61% 30.03 in 10.0 mi South 8.1 mph - N/A   Overcast
12:51 PM 79.0 °F - 66.0 °F 64% 29.91 in 10.0 mi SSW 8.1 mph - N/A   Mostly Cloudy
1:51 PM 75.9 °F - 66.9 °F 74% 29.91 in 10.0 mi WSW 4.6 mph - 0.00 in Rain Light Rain
2:51 PM 80.1 °F 82.1 °F 66.0 °F 62% 29.88 in 10.0 mi SW 9.2 mph - 0.00 in   Overcast
3:51 PM 80.1 °F 82.1 °F 66.0 °F 62% 29.87 in 10.0 mi SW 6.9 mph - N/A   Overcast
4:51 PM 78.1 °F - 66.9 °F 68% 29.86 in 10.0 mi South 9.2 mph - N/A   Overcast
5:51 PM 79.0 °F - 66.9 °F 66% 29.86 in 10.0 mi SSW 9.2 mph - N/A   Scattered Clouds
6:51 PM 77.0 °F - 66.9 °F 71% 29.87 in 10.0 mi SSW 5.8 mph - N/A   Overcast
7:51 PM 75.0 °F - 66.9 °F 76% 29.86 in 10.0 mi SSW 4.6 mph - N/A   Overcast
8:51 PM 73.9 °F - 66.9 °F 79% 29.88 in 10.0 mi SSE 3.5 mph - N/A   Overcast
9:51 PM 73.0 °F - 66.9 °F 81% 29.89 in 10.0 mi South 4.6 mph - N/A   Overcast
10:14 PM 71.6 °F - 68.0 °F 88% 30.00 in 10.0 mi West 8.1 mph - 0.07 in Rain Heavy Rain
10:38 PM 71.6 °F - 69.8 °F 94% 29.99 in 10.0 mi SW 3.5 mph - 0.37 in Rain Rain
10:51 PM 71.1 °F - 69.1 °F 93% 29.89 in 10.0 mi SSW 4.6 mph - 0.39 in Rain Rain
11:51 PM 70.0 °F - 68.0 °F 93% 29.88 in 10.0 mi SSW 6.9 mph - 0.04 in Rain Rain